Location: Unspecified
(52.4292°N, 19.3359°E)
Time: 00:44:27
(UTC+02:00)

SR - Pass Details

Date: 30 May 2024
Orbit: 580 x 858 km, 66.7° (Epoch: 12 June)

Event Time Altitude Azimuth Distance (km) Brightness Sun altitude
Rises 15:36:06 0° 174° (S) 3,204 ? 44.7°
Reaches altitude 10° 15:39:04 10° 159° (SSE) 2,230 ? 44.3°
Maximum altitude 15:42:46 21° 112° (ESE) 1,566 ? 43.7°
Drops below altitude 10° 15:46:17 10° 65° (ENE) 2,107 ? 43.2°
Sets 15:48:59 0° 49° (NE) 2,975 ? 42.9°
